Weather History for Orange City, IA

Change the Weather History Date:

Friday, November 25, 2011

  Actual Average Record
Temperature  
Mean Temperature 48 °F -  
Max Temperature 53 °F 38 °F 57 °F (1998)
Min Temperature 42 °F 23 °F -2 °F (1996)
Degree Days  
Heating Degree Days 18    
Moisture  
Dew Point 45 °F    
Average Humidity 89    
Maximum Humidity 100    
Minimum Humidity 71    
Precipitation  
Precipitation 0.00 in - - ()
Sea Level Pressure  
Sea Level Pressure 29.64 in    
Wind  
Wind Speed 10 mph (SSW)    
Max Wind Speed 17 mph    
Max Gust Speed 22 mph    
Visibility 7 miles    
Events      
Averages and records for this station are not official NWS values.
T = Trace of Precipitation, MM = Missing Value Source: NWS Daily Summary

Daily Weather History Graph

Daily Weather History Graph

Search for Another Location

Airport:

Trip Planner

Search our weather history database for the weather conditions in past years. The results will help you decide how hot, cold, wet, or windy it might be!

Date:

Astronomy

Nov. 25, 2011 Rise Set
Actual Time 7:28 AM CST 4:53 PM CST
Civil Twilight 6:57 AM CST 5:24 PM CST
Nautical Twilight 6:22 AM CST 5:59 PM CST
Astronomical Twilight 5:48 AM CST 6:33 PM CST
Moon 7:59 AM CST (11/25) 5:20 PM CST (11/25)
Length of Visible Light 10h 27m
Length of Day
9h 24m
New Moon, 0% of the Moon is Illuminated
Nov 25
New Moon
Dec 2
First Quarter
Dec 10
Full
Dec 17
Last Quarter
Dec 24
New

Hourly Weather History & Observations

Time (CST) Temp. Windchill Dew Point Humidity Pressure Visibility Wind Dir Wind Speed Gust Speed Precip Events Conditions
12:15 AM 46.4 °F 41.1 °F 37.4 °F 71% 29.69 in 10.0 mi South 11.5 mph - N/A   Clear
12:55 AM 46.4 °F 42.9 °F 39.2 °F 76% 29.70 in 10.0 mi South 6.9 mph - N/A   Clear
1:15 AM 44.6 °F 41.4 °F 41.0 °F 87% 29.70 in 10.0 mi SSW 5.8 mph - N/A   Clear
1:35 AM 42.8 °F 37.0 °F 39.2 °F 87% 29.70 in 10.0 mi SW 10.4 mph - N/A   Clear
1:55 AM 44.6 °F 40.2 °F 41.0 °F 87% 29.70 in 10.0 mi SSW 8.1 mph - N/A   Clear
2:15 AM 44.6 °F 40.7 °F 41.0 °F 87% 29.69 in 10.0 mi South 6.9 mph - N/A   Clear
2:35 AM 42.8 °F 38.6 °F 41.0 °F 93% 29.69 in 10.0 mi South 6.9 mph - N/A   Clear
2:55 AM 44.6 °F 40.2 °F 42.8 °F 93% 29.69 in 10.0 mi South 8.1 mph - N/A   Clear
3:15 AM 44.6 °F 38.8 °F 42.8 °F 93% 29.68 in 10.0 mi South 11.5 mph - N/A   Clear
3:35 AM 44.6 °F 39.7 °F 42.8 °F 93% 29.67 in 10.0 mi South 9.2 mph - N/A   Clear
4:35 AM 42.8 °F 39.3 °F 42.8 °F 100% 29.68 in 10.0 mi SSW 5.8 mph - N/A   Clear
4:55 AM 42.8 °F 38.0 °F 42.8 °F 100% 29.68 in 10.0 mi SSW 8.1 mph - N/A   Clear
5:15 AM 42.8 °F 37.5 °F 42.8 °F 100% 29.67 in 10.0 mi South 9.2 mph - N/A   Clear
5:35 AM 44.6 °F 39.2 °F 42.8 °F 93% 29.67 in 10.0 mi SSW 10.4 mph - N/A   Clear
5:55 AM 44.6 °F 38.4 °F 44.6 °F 100% 29.67 in 10.0 mi SSW 12.7 mph - N/A   Clear
6:15 AM 44.6 °F 38.8 °F 44.6 °F 100% - 10.0 mi South 11.5 mph - N/A   Clear
6:35 AM 44.6 °F 39.2 °F 44.6 °F 100% - 7.0 mi South 10.4 mph - N/A   Clear
6:55 AM 44.6 °F 39.7 °F 44.6 °F 100% 29.66 in 7.0 mi South 9.2 mph - N/A   Clear
7:15 AM 44.6 °F 39.7 °F 42.8 °F 93% 29.66 in 7.0 mi South 9.2 mph - N/A   Clear
7:55 AM 42.8 °F 37.0 °F 42.8 °F 100% 29.67 in 4.0 mi South 10.4 mph - N/A   Scattered Clouds
8:15 AM 42.8 °F 37.0 °F 42.8 °F 100% 29.67 in 4.0 mi South 10.4 mph - N/A   Mostly Cloudy
8:35 AM 44.6 °F 38.8 °F 44.6 °F 100% 29.67 in 4.0 mi South 11.5 mph - N/A   Overcast
8:55 AM 44.6 °F 39.2 °F 44.6 °F 100% 29.67 in 3.0 mi SSW 10.4 mph - N/A   Overcast
9:15 AM 46.4 °F 40.7 °F 44.6 °F 93% 29.67 in 3.0 mi SSW 12.7 mph - N/A   Overcast
9:35 AM 46.4 °F 40.4 °F 46.4 °F 100% 29.67 in 4.0 mi SSW 13.8 mph - N/A   Overcast
9:55 AM 46.4 °F 39.8 °F 46.4 °F 100% 29.66 in 4.0 mi SSW 16.1 mph - N/A   Overcast
10:15 AM 46.4 °F 39.8 °F 46.4 °F 100% 29.67 in 4.0 mi SSW 16.1 mph - N/A   Overcast
10:55 AM 48.2 °F - 46.4 °F 93% 29.65 in 5.0 mi SSW 16.1 mph - N/A   Overcast
11:35 AM 48.2 °F - 46.4 °F 93% 29.63 in 3.0 mi South 13.8 mph 18.4 mph N/A   Mostly Cloudy
11:55 AM 51.8 °F - 46.4 °F 82% 29.62 in 4.0 mi SSW 16.1 mph - N/A   Scattered Clouds
12:35 PM 53.6 °F - 46.4 °F 77% 29.62 in 7.0 mi SSW 17.3 mph - N/A   Clear
12:55 PM 51.8 °F - 48.2 °F 88% 29.61 in 7.0 mi South 13.8 mph - N/A   Clear
1:15 PM 51.8 °F - 48.2 °F 88% 29.60 in 7.0 mi SSW 16.1 mph - N/A   Clear
1:35 PM 51.8 °F - 48.2 °F 88% 29.59 in 5.0 mi South 15.0 mph - N/A   Clear
1:55 PM 53.6 °F - 46.4 °F 77% 29.60 in 7.0 mi SSW 16.1 mph - N/A   Clear
2:15 PM 53.6 °F - 48.2 °F 82% 29.60 in 7.0 mi SSW 15.0 mph 21.9 mph N/A   Clear
2:35 PM 53.6 °F - 48.2 °F 82% 29.59 in 7.0 mi SSW 12.7 mph - N/A   Clear
3:15 PM 53.6 °F - 48.2 °F 82% 29.59 in 7.0 mi SSW 10.4 mph - N/A   Clear
3:35 PM 53.6 °F - 48.2 °F 82% 29.58 in 7.0 mi SSW 10.4 mph - N/A   Clear
3:55 PM 53.6 °F - 48.2 °F 82% 29.59 in 7.0 mi South 9.2 mph - N/A   Clear
4:15 PM 53.6 °F - 48.2 °F 82% 29.58 in 7.0 mi South 9.2 mph - N/A   Clear
4:35 PM 53.6 °F - 48.2 °F 82% 29.60 in 7.0 mi SSW 9.2 mph - N/A   Clear
5:15 PM 53.6 °F - 48.2 °F 82% 29.61 in 7.0 mi South 8.1 mph - N/A   Scattered Clouds
5:35 PM 53.6 °F - 48.2 °F 82% 29.61 in 7.0 mi South 9.2 mph - N/A   Scattered Clouds
5:55 PM 51.8 °F - 46.4 °F 82% 29.60 in 7.0 mi South 5.8 mph - N/A   Clear
6:15 PM 51.8 °F - 46.4 °F 82% 29.60 in 7.0 mi SSW 4.6 mph - N/A   Clear
6:35 PM 51.8 °F - 46.4 °F 82% 29.60 in 7.0 mi South 5.8 mph - N/A   Clear
6:55 PM 50.0 °F - 46.4 °F 87% 29.60 in 7.0 mi South 4.6 mph - N/A   Scattered Clouds
7:35 PM 51.8 °F - 46.4 °F 82% 29.60 in 7.0 mi South 6.9 mph - N/A   Mostly Cloudy
7:55 PM 51.8 °F - 46.4 °F 82% 29.60 in 7.0 mi South 5.8 mph - N/A   Scattered Clouds
8:15 PM 50.0 °F - 46.4 °F 87% 29.60 in 7.0 mi South 5.8 mph - N/A   Mostly Cloudy
8:55 PM 50.0 °F - 46.4 °F 87% 29.61 in 7.0 mi South 6.9 mph - N/A   Mostly Cloudy
9:15 PM 50.0 °F - 46.4 °F 87% 29.61 in 7.0 mi South 6.9 mph - N/A   Scattered Clouds
9:35 PM 48.2 °F - 46.4 °F 93% 29.62 in 7.0 mi South 6.9 mph - N/A   Scattered Clouds
9:55 PM 48.2 °F - 46.4 °F 93% 29.62 in 7.0 mi SSW 5.8 mph - N/A   Scattered Clouds
10:15 PM 48.2 °F - 46.4 °F 93% 29.62 in 7.0 mi SSW 6.9 mph - N/A   Scattered Clouds
10:35 PM 48.2 °F - 46.4 °F 93% 29.62 in 7.0 mi SW 6.9 mph - N/A   Scattered Clouds
10:55 PM 48.2 °F - 46.4 °F 93% 29.63 in 7.0 mi West 10.4 mph - N/A   Scattered Clouds
11:15 PM 44.6 °F 38.4 °F 37.4 °F 76% 29.64 in 10.0 mi WNW 12.7 mph - N/A   Scattered Clouds